Lynchburg, VA

6:27 AM EST on November 20, 2019 (GMT -0500)
Lynchburg Regional-Glenn

Weather History for KLYH - September, 2019

Change the Weather History Date:

Saturday, September 21, 2019

  Actual Average Record
Temperature  
Mean Temperature 73 °F 65 °F  
Max Temperature 91 °F 76 °F 98 °F (1895)
Min Temperature 55 °F 54 °F 37 °F (1956)
Degree Days  
Heating Degree Days 0 3  
Month to date heating degree days 5 21  
Since 1 July heating degree days 5 24  
Cooling Degree Days 8 3  
Month to date cooling degree days 209 101  
Year to date cooling degree days 1424 999  
Growing Degree Days 22 (Base 50)    
Moisture  
Dew Point 60 °F    
Average Humidity 67    
Maximum Humidity 93    
Minimum Humidity 41    
Precipitation  
Precipitation 0.00 in 0.12 in 3.60 in (1979)
Month to date precipitation 0.06 2.78  
Year to date precipitation 27.64 30.71  
Snow  
Snow 0.00 in - - ()
Month to date snowfall 0.0  
Since 1 July snowfall 0.0  
Since 1 September snowfall 0.0  
Snow Depth 0.00 in    
Sea Level Pressure  
Sea Level Pressure 30.22 in    
Wind  
Wind Speed 2 mph (SSW)    
Max Wind Speed 8 mph    
Max Gust Speed 12 mph    
Visibility 10 miles    
Events      
T = Trace of Precipitation, MM = Missing Value Source: NWS Daily Summary

Daily Weather History Graph

Daily Weather History Graph

Search for Another Location

Airport or City:

Astronomy

Sep. 21, 2019 Rise Set
Actual Time 7:03 AM EDT 7:15 PM EDT
Civil Twilight 6:37 AM EDT 7:41 PM EDT
Nautical Twilight 6:07 AM EDT 8:12 PM EDT
Astronomical Twilight 5:36 AM EDT 8:42 PM EDT
Moon No Moon Rise 1:59 PM EDT (9/21)
Length of Visible Light 13h 04m
Length of Day
12h 12m
Waning Gibbous, 55% of the Moon is Illuminated
Sep 21
Waning Gibbous
Sep 21
Last Quarter
Sep 28
New
Oct 5
First Quarter
Oct 13
Full

Hourly Weather History & Observations

Time (EDT) Temp. Heat Index Dew Point Humidity Pressure Visibility Wind Dir Wind Speed Gust Speed Precip Events Conditions
12:54 AM 59.0 °F - 55.0 °F 87% 30.26 in 10.0 mi Calm Calm - N/A   Clear
1:54 AM 59.0 °F - 55.0 °F 87% 30.25 in 10.0 mi Calm Calm - N/A   Clear
2:54 AM 57.0 °F - 54.0 °F 89% 30.25 in 10.0 mi Calm Calm - N/A   Clear
3:54 AM 59.0 °F - 54.0 °F 83% 30.24 in 10.0 mi Calm Calm - N/A   Clear
4:54 AM 57.0 °F - 54.0 °F 89% 30.24 in 10.0 mi Calm Calm - N/A   Clear
5:54 AM 55.9 °F - 54.0 °F 93% 30.25 in 10.0 mi Calm Calm - N/A   Clear
6:54 AM 55.9 °F - 54.0 °F 93% 30.26 in 10.0 mi Calm Calm - N/A   Clear
7:54 AM 59.0 °F - 55.9 °F 90% 30.28 in 10.0 mi South 3.5 mph - N/A   Clear
8:54 AM 64.9 °F - 59.0 °F 81% 30.28 in 10.0 mi Calm Calm - N/A   Clear
9:54 AM 75.0 °F - 61.0 °F 62% 30.28 in 10.0 mi Variable 3.5 mph - N/A   Clear
10:54 AM 80.1 °F 81.2 °F 62.1 °F 54% 30.27 in 10.0 mi SSW 3.5 mph - N/A   Clear
11:54 AM 84.0 °F 84.9 °F 63.0 °F 49% 30.25 in 10.0 mi Calm Calm - N/A   Clear
12:54 PM 84.9 °F 85.4 °F 62.1 °F 46% 30.24 in 10.0 mi Variable 4.6 mph - N/A   Partly Cloudy
1:54 PM 87.1 °F 87.5 °F 62.1 °F 43% 30.22 in 10.0 mi Variable 4.6 mph - N/A   Partly Cloudy
2:54 PM 86.0 °F 86.3 °F 62.1 °F 44% 30.20 in 10.0 mi Calm Calm - N/A   Mostly Cloudy
3:54 PM 89.1 °F 89.3 °F 62.1 °F 40% 30.17 in 10.0 mi ESE 4.6 mph - N/A   Scattered Clouds
4:54 PM 86.0 °F 86.3 °F 62.1 °F 44% 30.16 in 10.0 mi WSW 4.6 mph - N/A   Partly Cloudy
5:54 PM 84.0 °F 84.9 °F 63.0 °F 49% 30.17 in 10.0 mi SW 3.5 mph - N/A   Partly Cloudy
6:54 PM 79.0 °F - 64.9 °F 62% 30.17 in 10.0 mi Calm Calm - N/A   Clear
7:54 PM 75.0 °F - 64.0 °F 69% 30.17 in 10.0 mi Calm Calm - N/A   Scattered Clouds
8:54 PM 72.0 °F - 64.9 °F 78% 30.18 in 10.0 mi Calm Calm - N/A   Mostly Cloudy
9:54 PM 73.0 °F - 64.9 °F 76% 30.19 in 10.0 mi Calm Calm - N/A   Overcast
10:54 PM 73.0 °F - 66.0 °F 79% 30.19 in 10.0 mi Calm Calm - N/A   Overcast
11:54 PM 71.1 °F - 64.9 °F 81% 30.19 in 10.0 mi Calm Calm - N/A   Overcast